CZ-3B DEB, 40162

Orbit data source: Space-Track

CZ-3B DEB, 40162 is space debris in HEO originally from a launch on Sat, 04 Sep 2010 UTC launched from the Xichang Space Center, China (XSC). Debris objects in space refer to the collection of defunct objects orbiting the Earth. Examples of debris include non-operational satellites, rocket bodies, and fragments generated from explosions, collisions, or faulty payload assembly.

Loading next visibility...
Identifier
40162, 2010-042P
Orbit
HEO
Last TLE update
22 hours ago
Origin
Manufacturer
CALT
Mission
Spacecraft
Bus & Motor
Unknown
Mass
Unknown
Launch date (UTC)
2010-09-04 (15 years ago)
Launch vehicle
Unknown
Launch site
Xichang Space Center, China (XSC)
Object type
Payload
Rocket body
Debris
Shape & HBR
Unknown
Radar Cross Section
Medium (>0.1 m² and <1 m²)

Expand to show TLE details & history

TLE from 22 hours ago
0 CZ-3B DEB
1 40162U 10042P   25188.44042967  .00000167  00000-0  00000-0 0  9994
2 40162  27.3517 338.8561 7209591 219.5220  55.7783  1.92047102 81581
Epoch: 2025-07-07T10:34Z
TLE epoch observation values (Epoch: 2025-07-07T10:34:13.123Z)
Latitude
Longitude
-105.36263°
Altitude
23,231.834 km
Speed
3.513 km/s
True Right ascension
22h 35m 22s
True Declination
0° 00' 00"
Sunlit
Object was in daylight at epoch
Visualization orbit readout
Latitude
27.31445°
Longitude
-10.99799°
Altitude
16,416.276 km
Speed
4.517 km/s
Apparent Right ascension
05h 31m 30s
Apparent Declination
15° 10' 26"
Sunlit
Object is in daylight
Visualization observer readout
Local Sidereal Time
20:27:30
Azimuth
46.052° ENE
Elevation
-21.379°
Doppler factor
1
Orbital elements
Apogee altitude
40,678.408 km
Perigee altitude
1,251.737 km
Semi-major axis
27,343.209 km
Eccentricity
0.72096
Inclination
27.3517°
RAAN
338.8561°
Arg. of periapsis
219.522°
True anomaly
Unknown
Mean anomaly
55.7783°
Eccentric anomaly
Unknown
Mean motion
0.48003 °/min
Orbital period
749.95 mins
BSTAR
0
Loading maneuver chart data...
Loading SW <> Apogee altitude chart data...
Loading historical data...
Loading historical data...
Loading historical data...
Loading historical data...
Loading historical data...
Loading historical data...
Loading historical data...

CZ-3B DEB Visibility forecast

Observer location: undefined°, undefined°

Span
Click to sort rows by Start time (UTC) header in descending order
Start Az.
Max El. time (UTC)
Max El. Az.
Max El.
End time (UTC)
End Az.
685 mins2025-07-08 10:28:47.946Z211.199° SW2025-07-08 13:25:47.946Z222.984° SW36.129°2025-07-08 21:53:47.946Z184.523° SSW
|